weather.gov     
National Weather Service

Regional Weather Roundup
NWS Homepage
This page is being discontinued on March 12, 2014.
The same data is available at this site. Please update your bookmarks.
Thank you, and we apologize for the inconvenience.
Please send an email to SR-SRH.Webmaster@noaa.gov with any concerns.


Current Version
Previous Version:    01  02  03  04  05  06  07  08  09  10  11  12  13  14  15  16  17  18  19  20  21  22  23  24  25  26  27  28  29  30  
   31  32  33  34  35  36  37  38  39  40  41  42  43  44  45  46  47  48  49  50  51  52  53  
[Printable]
352
ASUS45 KPSR 262010
RWRAZ

ARIZONA REGIONAL HOURLY WEATHER ROUNDUP
NATIONAL WEATHER SERVICE PHOENIX AZ
100 PM MST MON JAN 26 2015

NOTE: FAIR INDICATES FEW OR NO CLOUDS BELOW 12,000 FEET WITH NO
SIGNIFICANT WEATHER AND/OR OBSTRUCTIONS TO VISIBILITY.

AZZ001>003-036-262100-
NORTHWEST ARIZONA

CITY           SKY/WX    TMP DP  RH WIND       PRES   REMARKS
BULLHEAD CITY  CLOUDY    68  34  28 SW5       30.13F
KINGMAN        PTSUNNY   67  24  19 W7        30.18F
$$

AZZ004>008-015-016-018-262100-
NORTH CENTRAL ARIZONA

CITY           SKY/WX    TMP DP  RH WIND       PRES   REMARKS
GRAND CANYON   PTSUNNY   51  24  34 E13       30.30F
PRESCOTT       CLOUDY    61  23  23 E8        30.23F
FLAGSTAFF      PTSUNNY   50  23  34 NE10      30.30F
PAYSON         CLOUDY    57  25  28 S8        30.27F
PAGE           SUNNY     50  25  37 N6        30.31F
$$

AZZ009>014-017-262100-
NORTHEAST ARIZONA

CITY           SKY/WX    TMP DP  RH WIND       PRES   REMARKS
WINSLOW        PTSUNNY   48  27  44 CALM      30.30F
SAINT JOHNS    PTSUNNY   53  26  35 W6        30.27F
WINDOW ROCK    MOSUNNY   55  22  27 S7        30.33F
SHOW LOW       PTSUNNY   48  25  40 CALM      30.32F
$$

AZZ023-262100-
GREATER PHOENIX AREA

CITY           SKY/WX    TMP DP  RH WIND       PRES   REMARKS
PHOENIX        CLOUDY    70  25  18 CALM      30.12F
BUCKEYE          N/A     59  36  41 CALM      30.16F
GLENDALE       CLOUDY    66  30  26 SW5       30.15F
LUKE AFB       NOT AVBL
DEER VALLEY    CLOUDY    68  29  23 CALM      30.13F
SCOTTSDALE     CLOUDY    70  27  20 CALM      30.15F
MESA-FALCON    PTSUNNY   66  25  20 VRB6      30.14F
MESA-GATEWAY   PTSUNNY   66  32  28 CALM      30.16F
CHANDLER       CLOUDY    64  32  29 VRB3      30.14F
$$

AZZ027-028-262100-
SOUTHWEST MARICOPA COUNTY AND PINAL COUNTY

CITY           SKY/WX    TMP DP  RH WIND       PRES   REMARKS
CASA GRANDE    CLOUDY    61  28  29 CALM      30.15F
GILA BEND      MOCLDY    57  41  54 NE5       30.13F
$$

AZZ503-504-507>509-262100-
SOUTHEAST ARIZONA

CITY           SKY/WX    TMP DP  RH WIND       PRES   REMARKS
TUCSON         CLOUDY    61  46  57 CALM      30.17F
DAVIS-MONTHAN  CLOUDY    61  41  47 E7        30.15F
NOGALES        CLOUDY    64  39  39 VRB3      30.17F
SIERRA VISTA   PTSUNNY   55  28  35 E7        30.22F
DOUGLAS        CLOUDY    57  24  28 N6        30.22F
SAFFORD        CLOUDY    62  24  23 S9        30.22F
$$

AZZ020-021-025-026-031-262100-
SOUTHWEST ARIZONA

CITY           SKY/WX    TMP DP  RH WIND       PRES   REMARKS
YUMA           CLOUDY    59  52  77 NE13      30.09F
$$

CAZ031-033-041-043-047-048-061-262100-
SOUTHERN CALIFORNIA

CITY           SKY/WX    TMP DP  RH WIND       PRES   REMARKS
DOWNTOWN L.A.  PTSUNNY   79  32  18 SE7       29.98F
L.A. AIRPORT   PTSUNNY   75  37  25 S12G18    29.99F
SAN DIEGO      CLOUDY    64  57  77 S17G28    30.04R
BURBANK        PTSUNNY   73  33  23 SE12      30.00F
ONTARIO        CLOUDY    76  34  21 S8        30.02F
RIVERSIDE      PTSUNNY   75  33  21 E13G25    30.01F
PALM SPRINGS   CLOUDY    66  35  31 VRB5      30.15F
EL CENTRO NAS  LGT RAIN  62  54  74 E6        30.10F
IMPERIAL       CLOUDY    64  52  64 E6        30.09F
BLYTHE         LGT RAIN  57  47  69 S7        30.14F
NEEDLES        CLOUDY    68  31  25 W3        30.13F
$$

NVZ020-UTZ003-262100-
SOUTHERN NEVADA-UTAH

CITY           SKY/WX    TMP DP  RH WIND       PRES   REMARKS
LAS VEGAS      PTSUNNY   66  30  26 S5        30.11F
SALT LAKE CITY SUNNY     49  34  56 NW7       30.31F
$$

NMZ009-TXZ055-262100-
NEW MEXICO-WEST TEXAS

CITY           SKY/WX    TMP DP  RH WIND       PRES   REMARKS
ALBUQUERQUE    MOSUNNY   50  25  37 SW5       30.34F
EL PASO        PTSUNNY   57  27  31 N6        30.28F
$$


........................KEY........................
SKY/WX - SKY CONDITION/WEATHER
TMP    - TEMPERATURE IN FAHRENHEIT
DP     - DEW POINT IN FAHRENHEIT
RH     - RELATIVE HUMIDITY IN PERCENT
WIND   - DIRECTION AND SPEED IN MILES PER HOUR (MPH)
VRB    - VARIABLE WIND DIRECTION
PRES   - MEAN SEA LEVEL PRESSURE IN INCHES OF MERCURY
         F - FALLING PRESSURE   R - RISING PRESSURE
         S - STEADY PRESSURE
VSB    - VISIBILITY IN MILES
HX     - HEAT INDEX IN FAHRENHEIT
WCI    - WIND CHILL INDEX IN FAHRENHEIT
TC     - TEMPERATURE IN CELSIUS WHICH IS ALSO KNOWN AS
         TEMPERATURE IN CENTIGRADE
AFB    - AIR FORCE BASE
         LUKE AFB IS LUKE AIR FORCE BASE
         DAVIS-MONTHAN IS DAVIS-MONTHAN AIR FORCE BASE
NAS    - NAVAL AIR STATION
         EL CENTRO NAS IS EL CENTRO NAVAL AIR STATION
N/A    - NOT AVAILABLE




U.S. Dept. of Commerce
NOAA National Weather Service
1325 East West Highway
Silver Spring, MD 20910
E-mail: w-nws.webmaster@noaa.gov
Page last modified: May 16, 2007
NATIONAL WEATHER SERVICE: for Safety, for Work, for Fun - FOR LIFE